Home   Weather   Shantou   Past weeks

Flag for China Past Weather in Shantou, Guangdong, China — Yesterday and Last 2 Weeks

Now
52 °F

Clear.


Feels Like: 52 °F
Forecast: 50 / 64 °F
Wind: 1 mph from Northeast

Location: Shantou Airport

Current Time: Jan 23, 2017 at 12:53:06 am

Latest Report: Jan 23, 2017 at 12:00 am


Visibility: 10 mi

Pressure: 30.33 "Hg

Humidity: 82%

Dew Point: 46 °F

Location of ShantouLocation

Past Weather in Shantou — Graph

°F

Shantou Temperature Yesterday

Maximum temperature yesterday: 68 °F (at 2:00 pm)
Minimum temperature yesterday: 48 °F (at 5:00 am)
Average temperature yesterday: 57 °F

High & Low Weather Summary for the Past Weeks

 TemperatureHumidityPressure
High84 °F (Jan 8, 3:00 pm)100% (Jan 14, 12:00 am)30.39 "Hg (Jan 14, 12:00 am)
Low48 °F (Jan 22, 5:00 am)40% (Jan 22, 1:00 pm)29.86 "Hg (Jan 8, 2:00 pm)
Average62 °F76%30.13 "Hg
* Reported Jan 7 11:00 pm — Jan 22 11:00 pm, Shantou, Weather by CustomWeather, © 2017

Note: Actual official high and low records may vary slightly from our data, if they occured in-between our weather recording intervals... More about our weather records

Advertising

Shantou Weather History for the Previous 24 Hours

Scroll right to see more
 ConditionsComfort  
Time TempWeatherWind HumidityBarometerVisibility
11:00 pm
Sun, Jan 22
55 °FClear.6 mph72%30.33 "Hg10 mi
10:00 pm57 °FPassing clouds.8 mph67%30.33 "HgN/A
9:00 pm57 °FClear.8 mph67%30.33 "Hg10 mi
8:00 pm59 °FClear.8 mph63%30.30 "Hg10 mi
7:00 pm59 °FClear.8 mph68%30.27 "Hg10 mi
6:00 pm61 °FClear.10 mph55%30.27 "Hg10 mi
5:00 pm64 °FPassing clouds.8 mph49%30.24 "HgN/A
4:00 pm68 °FPassing clouds.6 mph46%30.21 "HgN/A
3:00 pm68 °FPassing clouds.6 mph40%30.21 "HgN/A
2:00 pm68 °FPassing clouds.6 mph40%30.24 "HgN/A
1:00 pm66 °FSunny.6 mph40%30.27 "Hg10 mi
12:00 pm64 °FPassing clouds.3 mph46%30.33 "HgN/A
11:00 am63 °FPassing clouds.3 mph49%30.36 "HgN/A
10:00 am59 °FClear.1 mph59%30.39 "Hg4 mi
9:00 am55 °FFog.1 mph82%30.39 "Hg3 mi
8:00 am50 °FFog.1 mph94%30.39 "Hg2 mi
7:00 am48 °FFog.No wind100%30.36 "Hg1 mi
6:00 am48 °FFog.3 mph100%30.36 "Hg3 mi
5:00 am48 °FFog.1 mph94%30.33 "Hg3 mi
4:00 am50 °FFog.No wind94%30.33 "Hg3 mi
3:00 am50 °FFog.1 mph94%30.33 "Hg3 mi
2:00 am52 °FClear.3 mph88%30.33 "Hg4 mi
1:00 am54 °FClear.3 mph82%30.33 "Hg4 mi
12:00 am54 °FClear.6 mph82%30.33 "Hg4 mi
Weather by CustomWeather, © 2017

See weather overviewHow to use our weather pages